Location: Sternwarte-Kraichtal
(49.1689°N, 8.6996°E)
Time: 19:38:27
(UTC+02:00)

Vanguard 2 Rocket - Pass Details

Date: 03 June 2022
Orbit: 553 x 3323 km, 32.9° (Epoch: 02 July)

Event Time Altitude Azimuth Distance (km) Brightness Sun altitude
Rises 12:35:02 0° 230° (SW) 6,767 11.4 61.5°
Reaches altitude 10° 12:39:40 10° 223° (SW) 5,984 11.4 61.8°
Maximum altitude 12:57:04 41° 163° (SSE) 4,207 11.9 62.7°
Drops below altitude 10° 13:13:15 10° 101° (ESE) 5,603 11.2 63.1°
Sets 13:17:22 0° 95° (E) 6,320 11.2 63.1°
